Location: Halfweg
(53.1000°N, 6.6000°E)
Time: 12:29:52
(UTC+00:00)

Cosmos 1766 Rocket - Pass Details

Date: 15 May 2026
Orbit: 597 x 625 km, 82.5° (Epoch: 8 June)

Event Time Altitude Azimuth Distance (km) Brightness Sun altitude
Rises 23:01:51 0° 351° (N) 2,859 8.7 -17.6°
Reaches altitude 10° 23:04:07 10° 356° (N) 1,951 7.4 -17.6°
Maximum altitude 23:08:20 54° 75° (ENE) 731 3.9 -17.7°
Enters shadow 23:10:09 31° 138° (SE) 1,066 4.3 -17.7°
